Location: ????????
(55.7667°N, 37.4833°E)
Time: 14:38:21
(UTC+00:00)

Meteor 2-13 Rocket - Pass Details

Date: 19 May 2025
Orbit: 934 x 958 km, 82.5° (Epoch: 21 June)

Event Time Altitude Azimuth Distance (km) Brightness Sun altitude
Exits shadow 20:35:03 17° 186° (S) 2,226 5.8 -13.5°
Maximum altitude 20:39:58 84° 100° (E) 966 4.5 -13.6°
Drops below altitude 10° 20:46:08 10° 13° (NNE) 2,687 7.9 -13.8°
Sets 20:48:38 0° 13° (NNE) 3,633 8.8 -13.8°
